{"data":{"norad_id":63719,"epoch":"2026-05-25T05:27:16.597152Z","epoch_age_seconds":62811,"freshness":"FRESH","line1":"1 63719U 25087Y   26145.22727543  .00019015  00000+0  57223-3 0  9995","line2":"2 63719  53.1589 222.9308 0001685  94.2819 265.8376 15.34413613 60934","mean_motion":15.34413613,"eccentricity":0.0001685,"inclination_deg":53.1589,"raan_deg":222.9308,"arg_perigee_deg":94.2819,"mean_anomaly_deg":265.8376,"bstar":0.00057223,"rev_number":6093,"period_min":93.846925483449,"perigee_km":461.51010503853,"apogee_km":463.81545456432,"semimajor_km":6840.7997798014,"source":"CELESTRAK","updated_at":"2026-05-25T13:38:20.101617Z"}}